Time,TemperatureF,DewpointF,PressureIn,WindDirection,WindDirectionDegrees,WindSpeedMPH,WindSpeedGustMPH,Humidity,HourlyPrecipIn,Conditions,Clouds,dailyrainin,SoftwareType,DateUTC
2013-07-19 00:00:00,71.8,69.0,30.06,North,349,0.0,0.0,91,0.00,,CLR,0.00,VWS V14.01,2013-07-19 05:00:00,
2013-07-19 00:01:00,71.6,68.8,30.05,North,349,0.0,0.0,91,0.00,,RA,0.00,VWS V14.01,2013-07-19 05:01:00,
2013-07-19 00:06:00,71.5,68.7,30.05,North,349,0.0,0.0,91,0.00,,RA,0.00,VWS V14.01,2013-07-19 05:06:00,
2013-07-19 00:10:00,71.6,68.8,30.06,North,349,0.0,0.0,91,0.00,,CLR,0.00,VWS V14.01,2013-07-19 05:10:00,
2013-07-19 00:11:00,71.5,68.7,30.05,North,349,0.0,0.0,91,0.00,,RA,0.00,VWS V14.01,2013-07-19 05:11:00,
2013-07-19 00:16:00,71.5,68.7,30.06,North,349,0.0,0.0,91,0.00,,RA,0.00,VWS V14.01,2013-07-19 05:16:00,
2013-07-19 00:20:00,71.5,68.7,30.05,North,349,0.0,0.0,91,0.00,,CLR,0.00,VWS V14.01,2013-07-19 05:20:00,
2013-07-19 00:21:00,71.5,68.7,30.06,North,349,0.0,0.0,91,0.00,,RA,0.00,VWS V14.01,2013-07-19 05:21:00,
2013-07-19 00:26:00,71.5,69.1,30.06,North,349,0.0,0.0,92,0.00,,RA,0.00,VWS V14.01,2013-07-19 05:26:00,
2013-07-19 00:30:00,71.5,68.7,30.06,North,349,0.0,0.0,91,0.00,,CLR,0.00,VWS V14.01,2013-07-19 05:30:00,
2013-07-19 00:31:00,71.5,69.1,30.06,North,349,0.0,0.0,92,0.00,,RA,0.00,VWS V14.01,2013-07-19 05:31:00,
2013-07-19 00:36:00,71.3,68.9,30.06,North,349,0.0,0.0,92,0.00,,RA,0.00,VWS V14.01,2013-07-19 05:36:00,
2013-07-19 00:40:00,71.5,69.1,30.06,North,349,0.0,0.0,92,0.00,,CLR,0.00,VWS V14.01,2013-07-19 05:40:00,
2013-07-19 00:41:00,71.3,68.9,30.06,North,349,0.0,0.0,92,0.00,,RA,0.00,VWS V14.01,2013-07-19 05:41:00,
2013-07-19 00:46:00,71.3,68.9,30.06,North,349,0.0,0.0,92,0.00,,RA,0.00,VWS V14.01,2013-07-19 05:46:00,
2013-07-19 00:50:00,71.3,68.9,30.06,North,349,0.0,0.0,92,0.00,,CLR,0.00,VWS V14.01,2013-07-19 05:50:00,
2013-07-19 00:51:00,71.5,69.1,30.06,North,349,0.0,0.0,92,0.00,,RA,0.00,VWS V14.01,2013-07-19 05:51:00,
2013-07-19 00:56:00,71.5,69.1,30.06,North,349,0.0,0.0,92,0.00,,RA,0.00,VWS V14.01,2013-07-19 05:56:00,
2013-07-19 01:00:00,71.5,69.1,30.06,North,349,0.0,0.0,92,0.00,,CLR,0.00,VWS V14.01,2013-07-19 06:00:00,
2013-07-19 01:01:00,71.5,69.4,30.05,North,349,0.0,0.0,93,0.00,,RA,0.00,VWS V14.01,2013-07-19 06:01:00,
2013-07-19 01:06:00,71.5,69.4,30.05,North,349,0.0,0.0,93,0.00,,RA,0.00,VWS V14.01,2013-07-19 06:06:00,
2013-07-19 01:10:00,71.5,69.1,30.06,North,349,0.0,0.0,92,0.00,,CLR,0.00,VWS V14.01,2013-07-19 06:10:00,
2013-07-19 01:11:00,71.5,69.4,30.05,North,349,0.0,0.0,93,0.00,,RA,0.00,VWS V14.01,2013-07-19 06:11:00,
2013-07-19 01:16:00,71.3,69.2,30.06,North,349,0.0,0.0,93,0.00,,RA,0.00,VWS V14.01,2013-07-19 06:16:00,
2013-07-19 01:20:00,71.5,69.4,30.05,North,349,0.0,0.0,93,0.00,,CLR,0.00,VWS V14.01,2013-07-19 06:20:00,
2013-07-19 01:21:00,71.3,69.2,30.06,North,349,0.0,0.0,93,0.00,,RA,0.00,VWS V14.01,2013-07-19 06:21:00,
2013-07-19 01:26:00,71.3,69.2,30.06,North,349,0.0,0.0,93,0.00,,RA,0.00,VWS V14.01,2013-07-19 06:26:00,
2013-07-19 01:30:00,71.3,69.2,30.06,North,349,0.0,0.0,93,0.00,,CLR,0.00,VWS V14.01,2013-07-19 06:30:00,
2013-07-19 01:31:00,71.3,69.2,30.06,North,349,0.0,0.0,93,0.00,,RA,0.00,VWS V14.01,2013-07-19 06:31:00,
2013-07-19 01:36:00,71.3,69.2,30.06,North,349,0.0,0.0,93,0.00,,RA,0.00,VWS V14.01,2013-07-19 06:36:00,
2013-07-19 01:40:00,71.3,69.2,30.06,North,349,0.0,0.0,93,0.00,,CLR,0.00,VWS V14.01,2013-07-19 06:40:00,
2013-07-19 01:41:00,71.1,69.0,30.06,North,349,0.0,0.0,93,0.00,,RA,0.00,VWS V14.01,2013-07-19 06:41:00,
2013-07-19 01:46:00,71.1,69.0,30.06,North,349,0.0,0.0,93,0.00,,RA,0.00,VWS V14.01,2013-07-19 06:46:00,
2013-07-19 01:50:00,71.3,69.2,30.06,North,349,0.0,0.0,93,0.00,,CLR,0.00,VWS V14.01,2013-07-19 06:50:00,
2013-07-19 01:51:00,71.1,69.0,30.06,North,349,0.0,0.0,93,0.00,,RA,0.00,VWS V14.01,2013-07-19 06:51:00,
2013-07-19 01:56:00,71.1,69.0,30.06,North,349,0.0,0.0,93,0.00,,RA,0.00,VWS V14.01,2013-07-19 06:56:00,
2013-07-19 02:00:00,71.1,69.0,30.06,North,349,0.0,0.0,93,0.00,,CLR,0.00,VWS V14.01,2013-07-19 07:00:00,
2013-07-19 02:01:00,71.1,69.0,30.05,North,349,0.0,0.0,93,0.00,,RA,0.00,VWS V14.01,2013-07-19 07:01:00,
2013-07-19 02:06:00,71.1,69.0,30.05,North,349,0.0,0.0,93,0.00,,RA,0.00,VWS V14.01,2013-07-19 07:06:00,
2013-07-19 02:10:00,71.1,69.0,30.06,North,349,0.0,0.0,93,0.00,,CLR,0.00,VWS V14.01,2013-07-19 07:10:00,
2013-07-19 02:11:00,71.1,69.0,30.05,North,349,0.0,0.0,93,0.00,,RA,0.00,VWS V14.01,2013-07-19 07:11:00,
2013-07-19 02:16:00,71.1,69.0,30.06,North,349,0.0,0.0,93,0.00,,RA,0.00,VWS V14.01,2013-07-19 07:16:00,
2013-07-19 02:20:00,71.1,69.0,30.05,North,349,0.0,0.0,93,0.00,,CLR,0.00,VWS V14.01,2013-07-19 07:20:00,
2013-07-19 02:21:00,71.1,69.0,30.06,North,349,0.0,0.0,93,0.00,,RA,0.00,VWS V14.01,2013-07-19 07:21:00,
2013-07-19 02:26:00,71.1,69.0,30.06,North,349,0.0,0.0,93,0.00,,RA,0.00,VWS V14.01,2013-07-19 07:26:00,
2013-07-19 02:30:00,71.1,69.0,30.06,North,349,0.0,0.0,93,0.00,,CLR,0.00,VWS V14.01,2013-07-19 07:30:00,
2013-07-19 02:31:00,71.0,68.9,30.06,North,349,0.0,0.0,93,0.00,,RA,0.00,VWS V14.01,2013-07-19 07:31:00,
2013-07-19 02:36:00,71.0,69.2,30.06,North,349,0.0,0.0,94,0.00,,RA,0.00,VWS V14.01,2013-07-19 07:36:00,
2013-07-19 02:40:00,71.1,69.0,30.06,North,349,0.0,0.0,93,0.00,,CLR,0.00,VWS V14.01,2013-07-19 07:40:00,
2013-07-19 02:41:00,71.0,69.2,30.06,North,349,0.0,0.0,94,0.00,,RA,0.00,VWS V14.01,2013-07-19 07:41:00,
2013-07-19 02:46:00,71.0,69.2,30.06,North,349,0.0,0.0,94,0.00,,RA,0.00,VWS V14.01,2013-07-19 07:46:00,
2013-07-19 02:50:00,71.0,69.2,30.06,North,349,0.0,0.0,94,0.00,,CLR,0.00,VWS V14.01,2013-07-19 07:50:00,
2013-07-19 02:51:00,71.0,69.2,30.06,North,349,0.0,0.0,94,0.00,,RA,0.00,VWS V14.01,2013-07-19 07:51:00,
2013-07-19 02:56:00,71.0,69.2,30.06,North,349,0.0,0.0,94,0.00,,RA,0.00,VWS V14.01,2013-07-19 07:56:00,
2013-07-19 03:00:00,71.0,69.2,30.06,North,349,0.0,0.0,94,0.00,,CLR,0.00,VWS V14.01,2013-07-19 08:00:00,
2013-07-19 03:01:00,71.0,69.2,30.05,North,349,0.0,0.0,94,0.00,,RA,0.00,VWS V14.01,2013-07-19 08:01:00,
2013-07-19 03:06:00,71.0,69.2,30.05,North,349,0.0,0.0,94,0.00,,RA,0.00,VWS V14.01,2013-07-19 08:06:00,
2013-07-19 03:10:00,71.0,69.2,30.06,North,349,0.0,0.0,94,0.00,,CLR,0.00,VWS V14.01,2013-07-19 08:10:00,
2013-07-19 03:11:00,71.0,69.2,30.05,North,349,0.0,0.0,94,0.00,,RA,0.00,VWS V14.01,2013-07-19 08:11:00,
2013-07-19 03:16:00,71.0,69.2,30.05,North,349,0.0,0.0,94,0.00,,RA,0.00,VWS V14.01,2013-07-19 08:16:00,
2013-07-19 03:20:00,71.0,69.2,30.05,North,349,0.0,0.0,94,0.00,,CLR,0.00,VWS V14.01,2013-07-19 08:20:00,
2013-07-19 03:21:00,70.8,69.0,30.05,North,349,0.0,0.0,94,0.00,,RA,0.00,VWS V14.01,2013-07-19 08:21:00,
2013-07-19 03:26:00,70.8,69.0,30.05,North,349,0.0,0.0,94,0.00,,RA,0.00,VWS V14.01,2013-07-19 08:26:00,
2013-07-19 03:30:00,70.8,69.0,30.05,North,349,0.0,0.0,94,0.00,,CLR,0.00,VWS V14.01,2013-07-19 08:30:00,
2013-07-19 03:31:00,70.6,68.8,30.04,North,349,0.0,0.0,94,0.00,,RA,0.00,VWS V14.01,2013-07-19 08:31:00,
2013-07-19 03:36:00,70.6,68.8,30.04,North,349,0.0,0.0,94,0.00,,RA,0.00,VWS V14.01,2013-07-19 08:36:00,
2013-07-19 03:40:00,70.8,69.0,30.05,North,349,0.0,0.0,94,0.00,,CLR,0.00,VWS V14.01,2013-07-19 08:40:00,
2013-07-19 03:41:00,70.6,68.8,30.04,North,349,0.0,0.0,94,0.00,,RA,0.00,VWS V14.01,2013-07-19 08:41:00,
2013-07-19 03:46:00,70.4,68.6,30.05,North,349,0.0,0.0,94,0.00,,RA,0.00,VWS V14.01,2013-07-19 08:46:00,
2013-07-19 03:50:00,70.6,68.8,30.04,North,349,0.0,0.0,94,0.00,,CLR,0.00,VWS V14.01,2013-07-19 08:50:00,
2013-07-19 03:51:00,70.4,68.6,30.05,North,349,0.0,0.0,94,0.00,,RA,0.00,VWS V14.01,2013-07-19 08:51:00,
2013-07-19 03:56:00,70.3,68.5,30.05,North,349,0.0,0.0,94,0.00,,RA,0.00,VWS V14.01,2013-07-19 08:56:00,
2013-07-19 04:00:00,70.4,68.6,30.05,North,349,0.0,0.0,94,0.00,,CLR,0.00,VWS V14.01,2013-07-19 09:00:00,
2013-07-19 04:01:00,70.3,68.5,30.04,North,349,0.0,0.0,94,0.00,,RA,0.00,VWS V14.01,2013-07-19 09:01:00,
2013-07-19 04:06:00,70.3,68.5,30.04,North,349,0.0,0.0,94,0.00,,RA,0.00,VWS V14.01,2013-07-19 09:06:00,
2013-07-19 04:10:00,70.3,68.5,30.05,North,349,0.0,0.0,94,0.00,,CLR,0.00,VWS V14.01,2013-07-19 09:10:00,
2013-07-19 04:11:00,70.3,68.5,30.04,North,349,0.0,0.0,94,0.00,,RA,0.00,VWS V14.01,2013-07-19 09:11:00,
2013-07-19 04:16:00,70.3,68.5,30.04,North,349,0.0,0.0,94,0.00,,RA,0.00,VWS V14.01,2013-07-19 09:16:00,
2013-07-19 04:20:00,70.3,68.5,30.04,North,349,0.0,0.0,94,0.00,,CLR,0.00,VWS V14.01,2013-07-19 09:20:00,
2013-07-19 04:21:00,70.3,68.5,30.04,North,349,0.0,0.0,94,0.00,,RA,0.00,VWS V14.01,2013-07-19 09:21:00,
2013-07-19 04:26:00,70.1,68.3,30.04,North,349,0.0,0.0,94,0.00,,RA,0.00,VWS V14.01,2013-07-19 09:26:00,
2013-07-19 04:30:00,70.3,68.5,30.04,North,349,0.0,0.0,94,0.00,,CLR,0.00,VWS V14.01,2013-07-19 09:30:00,
2013-07-19 04:31:00,70.1,68.3,30.04,North,349,0.0,0.0,94,0.00,,RA,0.00,VWS V14.01,2013-07-19 09:31:00,
2013-07-19 04:36:00,70.1,68.3,30.04,North,349,0.0,0.0,94,0.00,,RA,0.00,VWS V14.01,2013-07-19 09:36:00,
2013-07-19 04:40:00,70.1,68.3,30.04,North,349,0.0,0.0,94,0.00,,CLR,0.00,VWS V14.01,2013-07-19 09:40:00,
2013-07-19 04:41:00,69.9,68.1,30.04,North,349,0.0,0.0,94,0.00,,RA,0.00,VWS V14.01,2013-07-19 09:41:00,
2013-07-19 04:46:00,70.1,68.3,30.04,North,349,0.0,0.0,94,0.00,,RA,0.00,VWS V14.01,2013-07-19 09:46:00,
2013-07-19 04:50:00,70.1,68.3,30.04,North,349,0.0,0.0,94,0.00,,CLR,0.00,VWS V14.01,2013-07-19 09:50:00,
2013-07-19 04:51:00,70.1,68.3,30.04,North,349,0.0,0.0,94,0.00,,RA,0.00,VWS V14.01,2013-07-19 09:51:00,
2013-07-19 04:56:00,70.1,68.3,30.04,North,349,0.0,0.0,94,0.00,,RA,0.00,VWS V14.01,2013-07-19 09:56:00,
2013-07-19 05:00:00,70.1,68.3,30.04,North,349,0.0,0.0,94,0.00,,CLR,0.00,VWS V14.01,2013-07-19 10:00:00,
2013-07-19 05:01:00,70.1,68.3,30.04,North,349,0.0,0.0,94,0.00,,RA,0.00,VWS V14.01,2013-07-19 10:01:00,
2013-07-19 05:06:00,70.1,68.3,30.04,North,349,0.0,0.0,94,0.00,,RA,0.00,VWS V14.01,2013-07-19 10:06:00,
2013-07-19 05:10:00,70.1,68.3,30.04,North,349,0.0,0.0,94,0.00,,CLR,0.00,VWS V14.01,2013-07-19 10:10:00,
2013-07-19 05:11:00,70.1,68.3,30.04,North,349,0.0,0.0,94,0.00,,RA,0.00,VWS V14.01,2013-07-19 10:11:00,
2013-07-19 05:16:00,70.1,68.3,30.04,North,349,0.0,0.0,94,0.00,,RA,0.00,VWS V14.01,2013-07-19 10:16:00,
2013-07-19 05:20:00,70.1,68.3,30.04,North,349,0.0,0.0,94,0.00,,CLR,0.00,VWS V14.01,2013-07-19 10:20:00,
2013-07-19 05:21:00,70.1,68.3,30.04,North,349,0.0,0.0,94,0.00,,RA,0.00,VWS V14.01,2013-07-19 10:21:00,
2013-07-19 05:26:00,70.1,68.3,30.04,North,349,0.0,0.0,94,0.00,,RA,0.00,VWS V14.01,2013-07-19 10:26:00,
2013-07-19 05:30:00,70.1,68.3,30.04,North,349,0.0,0.0,94,0.00,,CLR,0.00,VWS V14.01,2013-07-19 10:30:00,
2013-07-19 05:31:00,70.1,68.3,30.04,North,349,0.0,0.0,94,0.00,,RA,0.00,VWS V14.01,2013-07-19 10:31:00,
2013-07-19 05:36:00,70.1,68.3,30.04,North,349,0.0,0.0,94,0.00,,RA,0.00,VWS V14.01,2013-07-19 10:36:00,
2013-07-19 05:40:00,70.1,68.3,30.04,North,349,0.0,0.0,94,0.00,,CLR,0.00,VWS V14.01,2013-07-19 10:40:00,
2013-07-19 05:41:00,69.9,68.1,30.04,North,349,0.0,0.0,94,0.00,,RA,0.00,VWS V14.01,2013-07-19 10:41:00,
2013-07-19 05:46:00,69.9,68.1,30.04,North,349,0.0,0.0,94,0.00,,RA,0.00,VWS V14.01,2013-07-19 10:46:00,
2013-07-19 05:50:00,70.1,68.3,30.04,North,349,0.0,0.0,94,0.00,,CLR,0.00,VWS V14.01,2013-07-19 10:50:00,
2013-07-19 05:51:00,70.1,68.3,30.04,North,349,0.0,0.0,94,0.00,,RA,0.00,VWS V14.01,2013-07-19 10:51:00,
2013-07-19 05:56:00,70.1,68.3,30.04,North,349,0.0,0.0,94,0.00,,RA,0.00,VWS V14.01,2013-07-19 10:56:00,
2013-07-19 06:00:00,69.9,68.1,30.04,North,349,0.0,0.0,94,0.00,,CLR,0.00,VWS V14.01,2013-07-19 11:00:00,
2013-07-19 06:01:00,70.1,68.3,30.04,North,349,0.0,0.0,94,0.00,,RA,0.00,VWS V14.01,2013-07-19 11:01:00,
2013-07-19 06:06:00,70.1,68.3,30.04,North,349,0.0,0.0,94,0.00,,RA,0.00,VWS V14.01,2013-07-19 11:06:00,
2013-07-19 06:10:00,70.1,68.3,30.04,North,349,0.0,0.0,94,0.00,,CLR,0.00,VWS V14.01,2013-07-19 11:10:00,
2013-07-19 06:11:00,70.1,68.6,30.04,North,349,0.0,0.0,95,0.00,,RA,0.00,VWS V14.01,2013-07-19 11:11:00,
2013-07-19 06:16:00,70.1,68.6,30.04,North,349,0.0,0.0,95,0.00,,RA,0.00,VWS V14.01,2013-07-19 11:16:00,
2013-07-19 06:20:00,70.1,68.3,30.04,North,349,0.0,0.0,94,0.00,,CLR,0.00,VWS V14.01,2013-07-19 11:20:00,
2013-07-19 06:21:00,70.1,68.6,30.04,North,349,0.0,0.0,95,0.00,,RA,0.00,VWS V14.01,2013-07-19 11:21:00,
2013-07-19 06:26:00,70.1,68.3,30.04,North,349,0.0,0.0,94,0.00,,RA,0.00,VWS V14.01,2013-07-19 11:26:00,
2013-07-19 06:30:00,70.1,68.6,30.04,North,349,0.0,0.0,95,0.00,,CLR,0.00,VWS V14.01,2013-07-19 11:30:00,
2013-07-19 06:31:00,69.9,68.1,30.04,North,349,0.0,0.0,94,0.00,,RA,0.00,VWS V14.01,2013-07-19 11:31:00,
2013-07-19 06:36:00,69.8,68.0,30.04,North,349,0.0,0.0,94,0.00,,RA,0.00,VWS V14.01,2013-07-19 11:36:00,
2013-07-19 06:40:00,70.1,68.3,30.04,North,349,0.0,0.0,94,0.00,,CLR,0.00,VWS V14.01,2013-07-19 11:40:00,
2013-07-19 06:41:00,69.8,68.0,30.04,North,349,0.0,0.0,94,0.00,,RA,0.00,VWS V14.01,2013-07-19 11:41:00,
2013-07-19 06:46:00,69.8,68.3,30.04,North,349,0.0,0.0,95,0.00,,RA,0.00,VWS V14.01,2013-07-19 11:46:00,
2013-07-19 06:50:00,69.8,68.0,30.04,North,349,0.0,0.0,94,0.00,,CLR,0.00,VWS V14.01,2013-07-19 11:50:00,
2013-07-19 06:51:00,69.8,68.3,30.04,North,349,0.0,0.0,95,0.00,,RA,0.00,VWS V14.01,2013-07-19 11:51:00,
2013-07-19 06:56:00,69.6,68.1,30.04,North,349,0.0,0.0,95,0.00,,RA,0.00,VWS V14.01,2013-07-19 11:56:00,
2013-07-19 07:00:00,69.8,68.3,30.04,North,349,0.0,0.0,95,0.00,,CLR,0.00,VWS V14.01,2013-07-19 12:00:00,
2013-07-19 07:01:00,69.6,68.1,30.04,North,349,0.0,0.0,95,0.00,,,0.00,VWS V14.01,2013-07-19 12:01:00,
2013-07-19 07:06:00,69.8,68.3,30.04,North,349,0.0,0.0,95,0.00,,,0.00,VWS V14.01,2013-07-19 12:06:00,
2013-07-19 07:10:00,69.6,68.1,30.04,North,349,0.0,0.0,95,0.00,,CLR,0.00,VWS V14.01,2013-07-19 12:10:00,
2013-07-19 07:11:00,69.8,68.3,30.04,North,349,0.0,0.0,95,0.00,,,0.00,VWS V14.01,2013-07-19 12:11:00,
2013-07-19 07:16:00,69.8,68.3,30.05,North,349,0.0,0.0,95,0.00,,,0.00,VWS V14.01,2013-07-19 12:16:00,
2013-07-19 07:20:00,69.8,68.3,30.04,North,349,0.0,0.0,95,0.00,,CLR,0.00,VWS V14.01,2013-07-19 12:20:00,
2013-07-19 07:21:00,69.8,68.3,30.05,North,349,0.0,0.0,95,0.00,,SCT006,0.00,VWS V14.01,2013-07-19 12:21:00,
2013-07-19 07:26:00,69.8,68.3,30.05,North,349,0.0,0.0,95,0.00,,SCT006,0.00,VWS V14.01,2013-07-19 12:26:00,
2013-07-19 07:30:00,69.8,68.3,30.05,North,349,0.0,0.0,95,0.00,,CLR,0.00,VWS V14.01,2013-07-19 12:30:00,
2013-07-19 07:31:00,69.9,68.4,30.06,North,349,0.0,0.0,95,0.00,,SCT006,0.00,VWS V14.01,2013-07-19 12:31:00,
2013-07-19 07:36:00,70.1,68.6,30.06,North,349,0.0,0.0,95,0.00,,SCT006,0.00,VWS V14.01,2013-07-19 12:36:00,
2013-07-19 07:40:00,69.8,68.3,30.05,North,349,0.0,0.0,95,0.00,,CLR,0.00,VWS V14.01,2013-07-19 12:40:00,
2013-07-19 07:41:00,70.4,68.9,30.06,North,349,0.0,0.0,95,0.00,,SCT006,0.00,VWS V14.01,2013-07-19 12:41:00,
2013-07-19 07:46:00,70.6,69.1,30.06,North,349,0.0,0.0,95,0.00,,SCT006,0.00,VWS V14.01,2013-07-19 12:46:00,
2013-07-19 07:50:00,70.1,68.6,30.06,North,349,0.0,0.0,95,0.00,,CLR,0.00,VWS V14.01,2013-07-19 12:50:00,
2013-07-19 07:51:00,71.0,69.5,30.06,North,349,0.0,0.0,95,0.00,,,0.00,VWS V14.01,2013-07-19 12:51:00,
2013-07-19 07:56:00,71.3,69.8,30.06,North,349,0.0,0.0,95,0.00,,,0.00,VWS V14.01,2013-07-19 12:56:00,
2013-07-19 08:00:00,70.6,69.1,30.06,North,349,0.0,0.0,95,0.00,,CLR,0.00,VWS V14.01,2013-07-19 13:00:00,
2013-07-19 08:01:00,71.5,70.0,30.06,North,349,0.0,0.0,95,0.00,,,0.00,VWS V14.01,2013-07-19 13:01:00,
2013-07-19 08:02:00,71.5,70.0,30.06,North,349,0.0,0.0,95,0.00,,,0.00,VWS V14.01,2013-07-19 13:02:00,
2013-07-19 08:07:00,71.8,70.3,30.06,North,349,0.0,0.0,95,0.00,,,0.00,VWS V14.01,2013-07-19 13:07:00,
2013-07-19 08:10:00,71.3,69.8,30.06,North,349,0.0,0.0,95,0.00,,CLR,0.00,VWS V14.01,2013-07-19 13:10:00,
2013-07-19 08:12:00,72.2,70.7,30.06,North,349,0.0,0.0,95,0.00,,,0.00,VWS V14.01,2013-07-19 13:12:00,
2013-07-19 08:17:00,72.5,71.0,30.06,North,349,0.0,0.0,95,0.00,,,0.00,VWS V14.01,2013-07-19 13:17:00,
2013-07-19 08:20:00,71.8,70.3,30.06,North,349,0.0,0.0,95,0.00,,CLR,0.00,VWS V14.01,2013-07-19 13:20:00,
2013-07-19 08:22:00,72.7,71.2,30.06,North,349,0.0,0.0,95,0.00,,,0.00,VWS V14.01,2013-07-19 13:22:00,
2013-07-19 08:26:00,73.0,71.5,30.06,North,349,0.0,0.0,95,0.00,,,0.00,VWS V14.01,2013-07-19 13:26:00,
2013-07-19 08:30:00,72.5,71.0,30.06,North,349,0.0,0.0,95,0.00,,CLR,0.00,VWS V14.01,2013-07-19 13:30:00,
2013-07-19 08:31:00,73.4,71.9,30.07,North,349,0.0,0.0,95,0.00,,,0.00,VWS V14.01,2013-07-19 13:31:00,
2013-07-19 08:36:00,73.7,72.2,30.07,North,349,0.0,0.0,95,0.00,,,0.00,VWS V14.01,2013-07-19 13:36:00,
2013-07-19 08:40:00,73.0,71.5,30.06,North,349,0.0,0.0,95,0.00,,CLR,0.00,VWS V14.01,2013-07-19 13:40:00,
2013-07-19 08:41:00,74.1,72.6,30.07,North,349,0.0,0.0,95,0.00,,,0.00,VWS V14.01,2013-07-19 13:41:00,
2013-07-19 08:46:00,74.6,73.1,30.07,North,349,0.0,0.0,95,0.00,,,0.00,VWS V14.01,2013-07-19 13:46:00,
2013-07-19 08:50:00,73.7,72.2,30.07,North,349,0.0,0.0,95,0.00,,CLR,0.00,VWS V14.01,2013-07-19 13:50:00,
2013-07-19 08:51:00,75.1,73.6,30.07,North,349,0.0,0.0,95,0.00,,,0.00,VWS V14.01,2013-07-19 13:51:00,
2013-07-19 08:56:00,75.5,74.0,30.07,North,349,0.0,0.0,95,0.00,,,0.00,VWS V14.01,2013-07-19 13:56:00,
2013-07-19 09:00:00,74.8,73.3,30.07,North,349,0.0,0.0,95,0.00,,CLR,0.00,VWS V14.01,2013-07-19 14:00:00,
2013-07-19 09:01:00,75.8,74.3,30.07,North,349,0.0,0.0,95,0.00,,,0.00,VWS V14.01,2013-07-19 14:01:00,
2013-07-19 09:06:00,76.2,74.3,30.07,North,349,0.0,0.0,94,0.00,,,0.00,VWS V14.01,2013-07-19 14:06:00,
2013-07-19 09:10:00,75.5,74.0,30.07,North,349,0.0,0.0,95,0.00,,CLR,0.00,VWS V14.01,2013-07-19 14:10:00,
2013-07-19 09:11:00,76.7,74.8,30.07,North,349,0.0,0.0,94,0.00,,,0.00,VWS V14.01,2013-07-19 14:11:00,
2013-07-19 09:16:00,77.1,75.2,30.07,North,349,0.0,0.0,94,0.00,,,0.00,VWS V14.01,2013-07-19 14:16:00,
2013-07-19 09:20:00,76.2,74.3,30.07,North,349,0.0,0.0,94,0.00,,CLR,0.00,VWS V14.01,2013-07-19 14:20:00,
2013-07-19 09:21:00,77.1,74.9,30.07,North,349,0.0,0.0,93,0.00,,OVC005,0.00,VWS V14.01,2013-07-19 14:21:00,
2013-07-19 09:26:00,77.2,74.7,30.07,North,349,0.0,0.0,92,0.00,,OVC005,0.00,VWS V14.01,2013-07-19 14:26:00,
2013-07-19 09:30:00,77.1,74.9,30.07,North,349,0.0,0.0,93,0.00,,CLR,0.00,VWS V14.01,2013-07-19 14:30:00,
2013-07-19 09:31:00,77.4,74.6,30.07,North,349,0.0,0.0,91,0.00,,OVC005,0.00,VWS V14.01,2013-07-19 14:31:00,
2013-07-19 09:36:00,78.0,75.2,30.07,North,349,0.0,0.0,91,0.00,,OVC005,0.00,VWS V14.01,2013-07-19 14:36:00,
2013-07-19 09:40:00,77.2,74.7,30.07,North,349,0.0,0.0,92,0.00,,CLR,0.00,VWS V14.01,2013-07-19 14:40:00,
2013-07-19 09:41:00,78.7,75.2,30.07,NNE,29,0.0,0.0,89,0.00,,BKN014,0.00,VWS V14.01,2013-07-19 14:41:00,
2013-07-19 09:46:00,79.1,74.2,30.07,NNE,29,0.0,0.0,85,0.00,,BKN014,0.00,VWS V14.01,2013-07-19 14:46:00,
2013-07-19 09:50:00,78.0,75.2,30.07,North,349,0.0,0.0,91,0.00,,CLR,0.00,VWS V14.01,2013-07-19 14:50:00,
2013-07-19 09:51:00,79.8,74.5,30.07,NNE,29,0.0,0.0,84,0.00,,BKN014,0.00,VWS V14.01,2013-07-19 14:51:00,
2013-07-19 09:56:00,80.0,74.0,30.07,NNE,29,0.0,0.0,82,0.00,,BKN014,0.00,VWS V14.01,2013-07-19 14:56:00,
2013-07-19 10:00:00,79.3,74.1,30.07,NNE,29,0.0,0.0,84,0.00,,CLR,0.00,VWS V14.01,2013-07-19 15:00:00,
2013-07-19 10:01:00,80.2,73.1,30.06,NNE,29,0.0,0.0,79,0.00,,BKN014,0.00,VWS V14.01,2013-07-19 15:01:00,
2013-07-19 10:06:00,80.0,72.9,30.06,NNE,29,0.0,0.0,79,0.00,,BKN014,0.00,VWS V14.01,2013-07-19 15:06:00,
2013-07-19 10:10:00,80.2,74.2,30.07,NNE,29,0.0,0.0,82,0.00,,CLR,0.00,VWS V14.01,2013-07-19 15:10:00,
2013-07-19 10:11:00,80.0,72.9,30.06,NNE,29,0.0,0.0,79,0.00,,SCT010,0.00,VWS V14.01,2013-07-19 15:11:00,
2013-07-19 10:16:00,80.0,72.2,30.06,NNE,29,0.0,0.0,77,0.00,,SCT010,0.00,VWS V14.01,2013-07-19 15:16:00,
2013-07-19 10:20:00,80.0,72.9,30.06,NNE,29,0.0,0.0,79,0.00,,CLR,0.00,VWS V14.01,2013-07-19 15:20:00,
2013-07-19 10:21:00,80.9,71.8,30.06,NNE,29,0.0,0.0,74,0.00,,SCT010,0.00,VWS V14.01,2013-07-19 15:21:00,
2013-07-19 10:26:00,81.7,71.8,30.06,NNE,29,0.0,0.0,72,0.00,,SCT010,0.00,VWS V14.01,2013-07-19 15:26:00,
2013-07-19 10:30:00,80.2,71.9,30.06,NNE,29,0.0,0.0,76,0.00,,CLR,0.00,VWS V14.01,2013-07-19 15:30:00,
2013-07-19 10:31:00,82.9,72.9,30.06,NNE,29,0.0,0.0,72,0.00,,SCT010,0.00,VWS V14.01,2013-07-19 15:31:00,
2013-07-19 10:36:00,82.9,71.7,30.06,ESE,107,0.0,0.0,69,0.00,,SCT010,0.00,VWS V14.01,2013-07-19 15:36:00,
2013-07-19 10:40:00,81.9,73.2,30.06,NNE,29,0.0,0.0,75,0.00,,CLR,0.00,VWS V14.01,2013-07-19 15:40:00,
2013-07-19 10:41:00,83.3,71.2,30.06,ESE,107,0.0,0.0,67,0.00,,SCT010,0.00,VWS V14.01,2013-07-19 15:41:00,
2013-07-19 10:46:00,84.0,71.9,30.06,ESE,107,0.0,0.0,67,0.00,,SCT010,0.00,VWS V14.01,2013-07-19 15:46:00,
2013-07-19 10:50:00,82.9,71.7,30.06,ESE,107,0.0,0.0,69,0.00,,CLR,0.00,VWS V14.01,2013-07-19 15:50:00,
2013-07-19 10:51:00,84.8,72.2,30.06,ESE,107,0.0,0.0,66,0.00,,SCT010,0.00,VWS V14.01,2013-07-19 15:51:00,
2013-07-19 10:56:00,85.2,73.0,30.06,ESE,107,0.0,0.0,67,0.00,,SCT010,0.00,VWS V14.01,2013-07-19 15:56:00,
2013-07-19 11:00:00,84.0,71.4,30.06,ESE,107,0.0,0.0,66,0.00,,CLR,0.00,VWS V14.01,2013-07-19 16:00:00,
2013-07-19 11:01:00,85.6,72.9,30.06,SE,128,0.0,0.0,66,0.00,,CLR,0.00,VWS V14.01,2013-07-19 16:01:00,
2013-07-19 11:06:00,85.8,72.2,30.06,SE,126,0.0,0.0,64,0.00,,CLR,0.00,VWS V14.01,2013-07-19 16:06:00,
2013-07-19 11:10:00,85.2,73.4,30.06,ESE,107,0.0,0.0,68,0.00,,CLR,0.00,VWS V14.01,2013-07-19 16:10:00,
2013-07-19 11:11:00,86.0,71.0,30.06,SE,126,0.0,0.0,61,0.00,,CLR,0.00,VWS V14.01,2013-07-19 16:11:00,
2013-07-19 11:16:00,86.5,72.9,30.05,South,189,0.0,0.0,64,0.00,,CLR,0.00,VWS V14.01,2013-07-19 16:16:00,
2013-07-19 11:20:00,85.8,71.8,30.06,SE,126,0.0,0.0,63,0.00,,CLR,0.00,VWS V14.01,2013-07-19 16:20:00,
2013-07-19 11:21:00,86.9,71.8,30.05,South,189,0.0,0.0,61,0.00,,CLR,0.00,VWS V14.01,2013-07-19 16:21:00,
2013-07-19 11:26:00,86.7,71.2,30.05,WSW,244,0.0,0.0,60,0.00,,CLR,0.00,VWS V14.01,2013-07-19 16:26:00,
2013-07-19 11:30:00,86.7,73.1,30.05,South,189,0.0,0.0,64,0.00,,CLR,0.00,VWS V14.01,2013-07-19 16:30:00,
2013-07-19 11:31:00,87.1,71.0,30.05,WSW,253,0.0,0.0,59,0.00,,CLR,0.00,VWS V14.01,2013-07-19 16:31:00,
2013-07-19 11:36:00,87.5,68.8,30.05,WSW,252,0.0,0.0,54,0.00,,CLR,0.00,VWS V14.01,2013-07-19 16:36:00,
2013-07-19 11:40:00,86.7,71.7,30.05,WSW,244,0.0,0.0,61,0.00,,CLR,0.00,VWS V14.01,2013-07-19 16:40:00,
2013-07-19 11:41:00,87.7,71.6,30.05,NNW,335,0.0,0.0,59,0.00,,CLR,0.00,VWS V14.01,2013-07-19 16:41:00,
2013-07-19 11:46:00,88.1,71.5,30.04,NNW,336,0.0,0.0,58,0.00,,CLR,0.00,VWS V14.01,2013-07-19 16:46:00,
2013-07-19 11:50:00,87.5,68.3,30.05,WSW,256,0.0,0.0,53,0.00,,CLR,0.00,VWS V14.01,2013-07-19 16:50:00,
2013-07-19 11:51:00,88.3,70.6,30.04,NNW,347,0.0,0.0,56,0.00,,CLR,0.00,VWS V14.01,2013-07-19 16:51:00,
2013-07-19 11:56:00,88.8,71.6,30.04,NNW,347,0.0,0.0,57,0.00,,CLR,0.00,VWS V14.01,2013-07-19 16:56:00,
2013-07-19 12:00:00,88.1,71.5,30.04,NNW,346,0.0,0.0,58,0.00,,CLR,0.00,VWS V14.01,2013-07-19 17:00:00,
2013-07-19 12:01:00,89.6,70.2,30.04,NNW,347,0.0,0.0,53,0.00,,FEW033,0.00,VWS V14.01,2013-07-19 17:01:00,
2013-07-19 12:06:00,89.8,71.5,30.04,NNW,347,0.0,0.0,55,0.00,,FEW033,0.00,VWS V14.01,2013-07-19 17:06:00,
2013-07-19 12:10:00,89.0,71.3,30.04,NNW,347,0.0,0.0,56,0.00,,CLR,0.00,VWS V14.01,2013-07-19 17:10:00,
2013-07-19 12:11:00,89.2,70.4,30.04,NNW,347,0.0,0.0,54,0.00,,FEW033,0.00,VWS V14.01,2013-07-19 17:11:00,
2013-07-19 12:16:00,88.8,71.6,30.03,NNW,347,0.0,0.0,57,0.00,,FEW033,0.00,VWS V14.01,2013-07-19 17:16:00,
2013-07-19 12:20:00,89.8,69.8,30.04,NNW,347,0.0,0.0,52,0.00,,CLR,0.00,VWS V14.01,2013-07-19 17:20:00,
2013-07-19 12:21:00,88.5,70.8,30.03,NNW,347,0.0,0.0,56,0.00,,FEW033,0.00,VWS V14.01,2013-07-19 17:21:00,
2013-07-19 12:26:00,88.3,70.1,30.03,NNW,347,0.0,0.0,55,0.00,,FEW033,0.00,VWS V14.01,2013-07-19 17:26:00,
2013-07-19 12:30:00,88.8,71.6,30.03,NNW,347,0.0,0.0,57,0.00,,CLR,0.00,VWS V14.01,2013-07-19 17:30:00,
2013-07-19 12:31:00,87.9,70.3,30.03,NNW,347,0.0,0.0,56,0.00,,FEW033,0.00,VWS V14.01,2013-07-19 17:31:00,
2013-07-19 12:36:00,87.7,70.6,30.03,NNW,347,0.0,0.0,57,0.00,,FEW033,0.00,VWS V14.01,2013-07-19 17:36:00,
2013-07-19 12:40:00,88.3,69.0,30.03,NNW,347,0.0,0.0,53,0.00,,CLR,0.00,VWS V14.01,2013-07-19 17:40:00,
2013-07-19 12:41:00,88.1,70.4,30.03,NNW,348,0.0,0.0,56,0.00,,FEW033,0.00,VWS V14.01,2013-07-19 17:41:00,
2013-07-19 12:46:00,89.0,69.7,30.02,NNW,348,0.0,0.0,53,0.00,,FEW033,0.00,VWS V14.01,2013-07-19 17:46:00,
2013-07-19 12:50:00,87.7,69.5,30.03,NNW,347,0.0,0.0,55,0.00,,CLR,0.00,VWS V14.01,2013-07-19 17:50:00,
2013-07-19 12:51:00,89.8,71.5,30.02,North,349,0.0,0.0,55,0.00,,FEW033,0.00,VWS V14.01,2013-07-19 17:51:00,
2013-07-19 12:56:00,90.7,70.1,30.02,North,349,0.0,0.0,51,0.00,,FEW033,0.00,VWS V14.01,2013-07-19 17:56:00,
2013-07-19 13:00:00,89.0,69.7,30.02,NNW,348,0.0,0.0,53,0.00,,CLR,0.00,VWS V14.01,2013-07-19 18:00:00,
2013-07-19 13:01:00,91.1,69.3,30.02,North,349,0.0,0.0,49,0.00,,FEW049,0.00,VWS V14.01,2013-07-19 18:01:00,
2013-07-19 13:06:00,91.1,69.9,30.02,North,349,0.0,0.0,50,0.00,,FEW049,0.00,VWS V14.01,2013-07-19 18:06:00,
2013-07-19 13:10:00,90.7,70.1,30.02,North,349,0.0,0.0,51,0.00,,CLR,0.00,VWS V14.01,2013-07-19 18:10:00,
2013-07-19 13:11:00,91.8,68.1,30.02,North,349,0.0,0.0,46,0.00,,FEW049,0.00,VWS V14.01,2013-07-19 18:11:00,
2013-07-19 13:16:00,92.2,70.3,30.01,North,349,0.0,0.0,49,0.00,,FEW049,0.00,VWS V14.01,2013-07-19 18:16:00,
2013-07-19 13:20:00,91.3,69.5,30.02,North,349,0.0,0.0,49,0.00,,CLR,0.00,VWS V14.01,2013-07-19 18:20:00,
2013-07-19 13:21:00,92.2,69.7,30.01,North,349,0.0,0.0,48,0.00,,FEW049,0.00,VWS V14.01,2013-07-19 18:21:00,
2013-07-19 13:26:00,92.2,67.8,30.01,NNW,327,0.0,0.0,45,0.00,,FEW049,0.00,VWS V14.01,2013-07-19 18:26:00,
2013-07-19 13:30:00,92.2,67.2,30.01,North,349,0.0,0.0,44,0.00,,CLR,0.00,VWS V14.01,2013-07-19 18:30:00,
2013-07-19 13:31:00,92.4,67.3,30.01,NNW,327,0.0,0.0,44,0.00,,FEW049,0.00,VWS V14.01,2013-07-19 18:31:00,
2013-07-19 13:36:00,92.7,71.3,30.01,NNW,327,0.0,0.0,50,0.00,,FEW049,0.00,VWS V14.01,2013-07-19 18:36:00,
2013-07-19 13:40:00,92.2,67.8,30.01,NNW,327,0.0,0.0,45,0.00,,CLR,0.00,VWS V14.01,2013-07-19 18:40:00,
2013-07-19 13:41:00,92.4,68.6,30.01,NNW,327,0.0,0.0,46,0.00,,FEW049,0.00,VWS V14.01,2013-07-19 18:41:00,
2013-07-19 13:46:00,92.4,68.0,30.00,NNW,327,0.0,0.0,45,0.00,,FEW049,0.00,VWS V14.01,2013-07-19 18:46:00,
2013-07-19 13:50:00,92.4,68.6,30.01,NNW,327,0.0,0.0,46,0.00,,CLR,0.00,VWS V14.01,2013-07-19 18:50:00,
2013-07-19 13:51:00,92.7,65.6,30.00,NNW,327,0.0,0.0,41,0.00,,FEW049,0.00,VWS V14.01,2013-07-19 18:51:00,
2013-07-19 13:56:00,92.4,69.9,30.00,NNW,327,0.0,0.0,48,0.00,,FEW049,0.00,VWS V14.01,2013-07-19 18:56:00,
2013-07-19 14:00:00,92.4,69.3,30.00,NNW,327,0.0,0.0,47,0.00,,CLR,0.00,VWS V14.01,2013-07-19 19:00:00,
2013-07-19 14:01:00,92.2,68.4,29.99,NNW,327,0.0,0.0,46,0.00,,BKN060,0.00,VWS V14.01,2013-07-19 19:01:00,
2013-07-19 14:06:00,92.2,69.7,29.99,NNW,327,0.0,0.0,48,0.00,,BKN060,0.00,VWS V14.01,2013-07-19 19:06:00,
2013-07-19 14:10:00,92.2,67.8,30.00,NNW,327,0.0,0.0,45,0.00,,CLR,0.00,VWS V14.01,2013-07-19 19:10:00,
2013-07-19 14:11:00,92.0,68.9,29.99,SSW,205,0.0,0.0,47,0.00,,BKN060,0.00,VWS V14.01,2013-07-19 19:11:00,
2013-07-19 14:16:00,91.8,68.1,29.98,North,5,0.0,0.0,46,0.00,,BKN060,0.00,VWS V14.01,2013-07-19 19:16:00,
2013-07-19 14:20:00,92.2,69.1,29.99,NNW,327,0.0,0.0,47,0.00,,CLR,0.00,VWS V14.01,2013-07-19 19:20:00,
2013-07-19 14:21:00,91.8,70.5,29.98,North,5,0.0,0.0,50,0.00,,BKN060,0.00,VWS V14.01,2013-07-19 19:21:00,
2013-07-19 14:26:00,91.8,68.7,29.98,North,5,0.0,0.0,47,0.00,,BKN060,0.00,VWS V14.01,2013-07-19 19:26:00,
2013-07-19 14:30:00,91.8,66.8,29.98,North,5,0.0,0.0,44,0.00,,CLR,0.00,VWS V14.01,2013-07-19 19:30:00,
2013-07-19 14:31:00,91.8,69.3,29.98,North,5,0.0,0.0,48,0.00,,BKN060,0.00,VWS V14.01,2013-07-19 19:31:00,
2013-07-19 14:36:00,92.0,70.1,29.98,North,5,0.0,0.0,49,0.00,,BKN060,0.00,VWS V14.01,2013-07-19 19:36:00,
2013-07-19 14:40:00,91.8,68.1,29.98,North,5,0.0,0.0,46,0.00,,CLR,0.00,VWS V14.01,2013-07-19 19:40:00,
2013-07-19 14:41:00,92.0,68.9,29.98,North,5,0.0,0.0,47,0.00,,BKN060,0.00,VWS V14.01,2013-07-19 19:41:00,
2013-07-19 14:46:00,91.8,68.1,29.98,North,5,0.0,0.0,46,0.00,,BKN060,0.00,VWS V14.01,2013-07-19 19:46:00,
2013-07-19 14:50:00,92.0,70.1,29.98,North,5,0.0,0.0,49,0.00,,CLR,0.00,VWS V14.01,2013-07-19 19:50:00,
2013-07-19 14:51:00,91.6,67.3,29.98,North,5,0.0,0.0,45,0.00,,BKN060,0.00,VWS V14.01,2013-07-19 19:51:00,
2013-07-19 14:56:00,91.6,69.2,29.98,North,5,0.0,0.0,48,0.00,,BKN060,0.00,VWS V14.01,2013-07-19 19:56:00,
2013-07-19 15:00:00,91.8,68.1,29.98,North,5,0.0,0.0,46,0.00,,CLR,0.00,VWS V14.01,2013-07-19 20:00:00,
2013-07-19 15:01:00,91.3,68.3,29.97,North,5,0.0,0.0,47,0.00,,FEW050,0.00,VWS V14.01,2013-07-19 20:01:00,
2013-07-19 15:06:00,90.9,68.5,29.97,North,5,0.0,0.0,48,0.00,,FEW050,0.00,VWS V14.01,2013-07-19 20:06:00,
2013-07-19 15:10:00,91.6,69.8,29.98,North,5,0.0,0.0,49,0.00,,CLR,0.00,VWS V14.01,2013-07-19 20:10:00,
2013-07-19 15:11:00,90.5,68.2,29.97,North,5,0.0,0.0,48,0.00,,FEW050,0.00,VWS V14.01,2013-07-19 20:11:00,
2013-07-19 15:16:00,90.2,68.5,29.97,North,5,0.0,0.0,49,0.00,,FEW050,0.00,VWS V14.01,2013-07-19 20:16:00,
2013-07-19 15:20:00,90.7,68.3,29.97,North,5,0.0,0.0,48,0.00,,CLR,0.00,VWS V14.01,2013-07-19 20:20:00,
2013-07-19 15:21:00,90.0,67.1,29.97,NE,46,0.0,0.0,47,0.00,,FEW050,0.00,VWS V14.01,2013-07-19 20:21:00,
2013-07-19 15:26:00,90.5,69.9,29.97,NE,46,0.0,0.0,51,0.00,,FEW050,0.00,VWS V14.01,2013-07-19 20:26:00,
2013-07-19 15:30:00,90.2,68.5,29.97,North,5,0.0,0.0,49,0.00,,CLR,0.00,VWS V14.01,2013-07-19 20:30:00,
2013-07-19 15:31:00,90.5,68.8,29.97,NE,46,0.0,0.0,49,0.00,,FEW050,0.00,VWS V14.01,2013-07-19 20:31:00,
2013-07-19 15:36:00,90.2,68.5,29.97,NE,46,0.0,0.0,49,0.00,,FEW050,0.00,VWS V14.01,2013-07-19 20:36:00,
2013-07-19 15:40:00,90.5,68.8,29.97,NE,46,0.0,0.0,49,0.00,,CLR,0.00,VWS V14.01,2013-07-19 20:40:00,
2013-07-19 15:41:00,89.2,69.3,29.97,NE,46,0.0,0.0,52,0.00,,FEW050,0.00,VWS V14.01,2013-07-19 20:41:00,
2013-07-19 15:46:00,88.8,70.0,29.95,NE,46,0.0,0.0,54,0.00,,FEW050,0.00,VWS V14.01,2013-07-19 20:46:00,
2013-07-19 15:50:00,90.0,68.9,29.97,NE,46,0.0,0.0,50,0.00,,CLR,0.00,VWS V14.01,2013-07-19 20:50:00,
2013-07-19 15:51:00,89.4,68.9,29.95,NE,46,0.0,0.0,51,0.00,,FEW050,0.00,VWS V14.01,2013-07-19 20:51:00,
2013-07-19 15:56:00,90.0,66.5,29.95,NE,46,0.0,0.0,46,0.00,,FEW050,0.00,VWS V14.01,2013-07-19 20:56:00,
2013-07-19 16:00:00,88.8,70.0,29.95,NE,46,0.0,0.0,54,0.00,,CLR,0.00,VWS V14.01,2013-07-19 21:00:00,
2013-07-19 16:01:00,90.5,66.3,29.95,NE,46,0.0,0.0,45,0.00,,SCT065,0.00,VWS V14.01,2013-07-19 21:01:00,
2013-07-19 16:06:00,90.9,67.9,29.95,NE,46,0.0,0.0,47,0.00,,SCT065,0.00,VWS V14.01,2013-07-19 21:06:00,
2013-07-19 16:10:00,90.0,66.5,29.95,NE,46,0.0,0.0,46,0.00,,CLR,0.00,VWS V14.01,2013-07-19 21:10:00,
2013-07-19 16:11:00,91.3,67.6,29.95,NE,46,0.0,0.0,46,0.00,,SCT065,0.00,VWS V14.01,2013-07-19 21:11:00,
2013-07-19 16:16:00,91.6,67.9,29.95,NE,46,0.0,0.0,46,0.00,,SCT065,0.00,VWS V14.01,2013-07-19 21:16:00,
2013-07-19 16:20:00,90.9,66.0,29.95,NE,46,0.0,0.0,44,0.00,,CLR,0.00,VWS V14.01,2013-07-19 21:20:00,
2013-07-19 16:21:00,91.3,67.6,29.95,NE,46,0.0,0.0,46,0.00,,SCT065,0.00,VWS V14.01,2013-07-19 21:21:00,
2013-07-19 16:26:00,90.9,67.3,29.95,NE,46,0.0,0.0,46,0.00,,SCT065,0.00,VWS V14.01,2013-07-19 21:26:00,
2013-07-19 16:30:00,91.6,67.9,29.95,NE,46,0.0,0.0,46,0.00,,CLR,0.00,VWS V14.01,2013-07-19 21:30:00,
2013-07-19 16:31:00,90.0,68.3,29.94,NE,46,0.0,0.0,49,0.00,,SCT065,0.00,VWS V14.01,2013-07-19 21:31:00,
2013-07-19 16:36:00,89.2,69.8,29.94,NE,46,0.0,0.0,53,0.00,,SCT065,0.00,VWS V14.01,2013-07-19 21:36:00,
2013-07-19 16:40:00,90.7,67.1,29.95,NE,46,0.0,0.0,46,0.00,,CLR,0.00,VWS V14.01,2013-07-19 21:40:00,
2013-07-19 16:41:00,88.3,69.6,29.94,NE,46,0.0,0.0,54,0.00,,SCT065,0.00,VWS V14.01,2013-07-19 21:41:00,
2013-07-19 16:46:00,87.5,70.4,29.93,NE,46,0.0,0.0,57,0.00,,SCT065,0.00,VWS V14.01,2013-07-19 21:46:00,
2013-07-19 16:50:00,89.2,69.8,29.94,NE,46,0.0,0.0,53,0.00,,CLR,0.00,VWS V14.01,2013-07-19 21:50:00,
2013-07-19 16:51:00,87.1,70.0,29.93,NE,46,0.0,0.0,57,0.00,,SCT065,0.00,VWS V14.01,2013-07-19 21:51:00,
2013-07-19 16:56:00,87.1,66.2,29.93,NE,46,0.0,0.0,50,0.00,,SCT065,0.00,VWS V14.01,2013-07-19 21:56:00,
2013-07-19 17:00:00,87.3,70.2,29.93,NE,46,0.0,0.0,57,0.00,,CLR,0.00,VWS V14.01,2013-07-19 22:00:00,
2013-07-19 17:01:00,87.7,67.3,29.92,NE,46,0.0,0.0,51,0.00,,FEW060,0.00,VWS V14.01,2013-07-19 22:01:00,
2013-07-19 17:06:00,88.3,68.5,29.92,NE,46,0.0,0.0,52,0.00,,FEW060,0.00,VWS V14.01,2013-07-19 22:06:00,
2013-07-19 17:10:00,87.3,66.4,29.93,NE,46,0.0,0.0,50,0.00,,CLR,0.00,VWS V14.01,2013-07-19 22:10:00,
2013-07-19 17:11:00,88.5,65.7,29.92,NE,46,0.0,0.0,47,0.00,,FEW060,0.00,VWS V14.01,2013-07-19 22:11:00,
2013-07-19 17:16:00,89.2,67.0,29.92,NE,46,0.0,0.0,48,0.00,,FEW060,0.00,VWS V14.01,2013-07-19 22:16:00,
2013-07-19 17:20:00,88.3,67.9,29.92,NE,46,0.0,0.0,51,0.00,,CLR,0.00,VWS V14.01,2013-07-19 22:20:00,
2013-07-19 17:21:00,89.6,67.9,29.92,NE,46,0.0,0.0,49,0.00,,FEW060,0.00,VWS V14.01,2013-07-19 22:21:00,
2013-07-19 17:26:00,90.0,65.8,29.92,NE,46,0.0,0.0,45,0.00,,FEW060,0.00,VWS V14.01,2013-07-19 22:26:00,
2013-07-19 17:30:00,89.2,64.5,29.92,NE,46,0.0,0.0,44,0.00,,CLR,0.00,VWS V14.01,2013-07-19 22:30:00,
2013-07-19 17:31:00,90.2,66.0,29.92,NE,46,0.0,0.0,45,0.00,,FEW060,0.00,VWS V14.01,2013-07-19 22:31:00,
2013-07-19 17:36:00,90.0,66.5,29.92,NE,46,0.0,0.0,46,0.00,,FEW060,0.00,VWS V14.01,2013-07-19 22:36:00,
2013-07-19 17:40:00,90.0,65.8,29.92,NE,46,0.0,0.0,45,0.00,,CLR,0.00,VWS V14.01,2013-07-19 22:40:00,
2013-07-19 17:41:00,89.6,68.5,29.92,NE,46,0.0,0.0,50,0.00,,FEW060,0.00,VWS V14.01,2013-07-19 22:41:00,
2013-07-19 17:46:00,89.2,68.2,29.91,NE,46,0.0,0.0,50,0.00,,FEW060,0.00,VWS V14.01,2013-07-19 22:46:00,
2013-07-19 17:50:00,89.8,66.9,29.92,NE,46,0.0,0.0,47,0.00,,CLR,0.00,VWS V14.01,2013-07-19 22:50:00,
2013-07-19 17:51:00,89.2,67.0,29.91,NE,46,0.0,0.0,48,0.00,,FEW060,0.00,VWS V14.01,2013-07-19 22:51:00,
2013-07-19 17:56:00,89.0,66.2,29.91,NE,46,0.0,0.0,47,0.00,,FEW060,0.00,VWS V14.01,2013-07-19 22:56:00,
2013-07-19 18:00:00,89.2,67.6,29.91,NE,46,0.0,0.0,49,0.00,,CLR,0.00,VWS V14.01,2013-07-19 23:00:00,
2013-07-19 18:01:00,89.0,66.8,29.90,NE,46,0.0,0.0,48,0.00,,FEW065,0.00,VWS V14.01,2013-07-19 23:01:00,
2013-07-19 18:06:00,88.8,67.2,29.90,NE,46,0.0,0.0,49,0.00,,FEW065,0.00,VWS V14.01,2013-07-19 23:06:00,
2013-07-19 18:10:00,89.0,66.2,29.91,NE,46,0.0,0.0,47,0.00,,CLR,0.00,VWS V14.01,2013-07-19 23:10:00,
2013-07-19 18:11:00,88.1,67.7,29.90,NE,46,0.0,0.0,51,0.00,,FEW065,0.00,VWS V14.01,2013-07-19 23:11:00,
2013-07-19 18:16:00,87.5,67.7,29.90,NE,46,0.0,0.0,52,0.00,,FEW065,0.00,VWS V14.01,2013-07-19 23:16:00,
2013-07-19 18:20:00,88.5,66.9,29.90,NE,46,0.0,0.0,49,0.00,,CLR,0.00,VWS V14.01,2013-07-19 23:20:00,
2013-07-19 18:21:00,86.9,67.2,29.90,NE,46,0.0,0.0,52,0.00,,FEW065,0.00,VWS V14.01,2013-07-19 23:21:00,
2013-07-19 18:26:00,86.5,67.9,29.90,NE,46,0.0,0.0,54,0.00,,FEW065,0.00,VWS V14.01,2013-07-19 23:26:00,
2013-07-19 18:30:00,87.5,67.7,29.90,NE,46,0.0,0.0,52,0.00,,CLR,0.00,VWS V14.01,2013-07-19 23:30:00,
2013-07-19 18:31:00,86.2,67.1,29.90,NE,46,0.0,0.0,53,0.00,,FEW065,0.00,VWS V14.01,2013-07-19 23:31:00,
2013-07-19 18:36:00,86.0,67.4,29.90,NE,46,0.0,0.0,54,0.00,,FEW065,0.00,VWS V14.01,2013-07-19 23:36:00,
2013-07-19 18:40:00,86.5,68.4,29.90,NE,46,0.0,0.0,55,0.00,,CLR,0.00,VWS V14.01,2013-07-19 23:40:00,
2013-07-19 18:41:00,86.2,67.6,29.90,NE,46,0.0,0.0,54,0.00,,FEW065,0.00,VWS V14.01,2013-07-19 23:41:00,
2013-07-19 18:46:00,86.5,65.7,29.90,NE,46,0.0,0.0,50,0.00,,FEW065,0.00,VWS V14.01,2013-07-19 23:46:00,
2013-07-19 18:50:00,86.0,67.4,29.90,NE,46,0.0,0.0,54,0.00,,CLR,0.00,VWS V14.01,2013-07-19 23:50:00,
2013-07-19 18:51:00,86.7,64.7,29.90,NE,46,0.0,0.0,48,0.00,,FEW065,0.00,VWS V14.01,2013-07-19 23:51:00,
2013-07-19 18:56:00,86.7,65.9,29.90,NE,46,0.0,0.0,50,0.00,,FEW065,0.00,VWS V14.01,2013-07-19 23:56:00,
2013-07-19 19:00:00,86.5,66.2,29.90,NE,46,0.0,0.0,51,0.00,,CLR,0.00,VWS V14.01,2013-07-20 00:00:00,
2013-07-19 19:01:00,86.7,64.7,29.90,NE,46,0.0,0.0,48,0.00,,CLR,0.00,VWS V14.01,2013-07-20 00:01:00,
2013-07-19 19:06:00,86.7,66.4,29.90,NE,46,0.0,0.0,51,0.00,,CLR,0.00,VWS V14.01,2013-07-20 00:06:00,
2013-07-19 19:10:00,86.7,65.3,29.90,NE,46,0.0,0.0,49,0.00,,CLR,0.00,VWS V14.01,2013-07-20 00:10:00,
2013-07-19 19:11:00,86.7,66.4,29.90,NE,46,0.0,0.0,51,0.00,,CLR,0.00,VWS V14.01,2013-07-20 00:11:00,
2013-07-19 19:16:00,86.5,65.7,29.89,NE,46,0.0,0.0,50,0.00,,CLR,0.00,VWS V14.01,2013-07-20 00:16:00,
2013-07-19 19:20:00,86.7,66.4,29.90,NE,46,0.0,0.0,51,0.00,,CLR,0.00,VWS V14.01,2013-07-20 00:20:00,
2013-07-19 19:21:00,86.2,67.1,29.89,NE,46,0.0,0.0,53,0.00,,CLR,0.00,VWS V14.01,2013-07-20 00:21:00,
2013-07-19 19:26:00,86.0,67.4,29.89,NE,46,0.0,0.0,54,0.00,,CLR,0.00,VWS V14.01,2013-07-20 00:26:00,
2013-07-19 19:30:00,86.5,65.7,29.89,NE,46,0.0,0.0,50,0.00,,CLR,0.00,VWS V14.01,2013-07-20 00:30:00,
2013-07-19 19:31:00,85.6,67.1,29.89,NE,46,0.0,0.0,54,0.00,,CLR,0.00,VWS V14.01,2013-07-20 00:31:00,
2013-07-19 19:36:00,85.2,66.7,29.89,NE,46,0.0,0.0,54,0.00,,CLR,0.00,VWS V14.01,2013-07-20 00:36:00,
2013-07-19 19:40:00,85.8,67.8,29.89,NE,46,0.0,0.0,55,0.00,,CLR,0.00,VWS V14.01,2013-07-20 00:40:00,
2013-07-19 19:41:00,85.0,66.5,29.89,NE,46,0.0,0.0,54,0.00,,CLR,0.00,VWS V14.01,2013-07-20 00:41:00,
2013-07-19 19:46:00,84.8,66.8,29.90,NE,46,0.0,0.0,55,0.00,,CLR,0.00,VWS V14.01,2013-07-20 00:46:00,
2013-07-19 19:50:00,85.2,66.7,29.89,NE,46,0.0,0.0,54,0.00,,CLR,0.00,VWS V14.01,2013-07-20 00:50:00,
2013-07-19 19:51:00,84.4,66.5,29.90,NE,46,0.0,0.0,55,0.00,,CLR,0.00,VWS V14.01,2013-07-20 00:51:00,
2013-07-19 19:56:00,84.2,66.8,29.90,NE,46,0.0,0.0,56,0.00,,CLR,0.00,VWS V14.01,2013-07-20 00:56:00,
2013-07-19 20:00:00,84.8,66.8,29.90,NE,46,0.0,0.0,55,0.00,,CLR,0.00,VWS V14.01,2013-07-20 01:00:00,
2013-07-19 20:01:00,84.0,67.1,29.90,NE,46,0.0,0.0,57,0.00,,CLR,0.00,VWS V14.01,2013-07-20 01:01:00,
2013-07-19 20:06:00,84.0,67.1,29.90,NE,46,0.0,0.0,57,0.00,,CLR,0.00,VWS V14.01,2013-07-20 01:06:00,
2013-07-19 20:10:00,84.2,66.8,29.90,NE,46,0.0,0.0,56,0.00,,CLR,0.00,VWS V14.01,2013-07-20 01:10:00,
2013-07-19 20:11:00,83.6,66.8,29.90,NE,46,0.0,0.0,57,0.00,,CLR,0.00,VWS V14.01,2013-07-20 01:11:00,
2013-07-19 20:16:00,83.5,66.7,29.90,NE,46,0.0,0.0,57,0.00,,CLR,0.00,VWS V14.01,2013-07-20 01:16:00,
2013-07-19 20:20:00,83.8,67.0,29.90,NE,46,0.0,0.0,57,0.00,,CLR,0.00,VWS V14.01,2013-07-20 01:20:00,
2013-07-19 20:21:00,83.3,67.0,29.90,NE,46,0.0,0.0,58,0.00,,CLR,0.00,VWS V14.01,2013-07-20 01:21:00,
2013-07-19 20:26:00,82.9,66.1,29.90,NE,46,0.0,0.0,57,0.00,,CLR,0.00,VWS V14.01,2013-07-20 01:26:00,
2013-07-19 20:30:00,83.5,66.7,29.90,NE,46,0.0,0.0,57,0.00,,CLR,0.00,VWS V14.01,2013-07-20 01:30:00,
2013-07-19 20:31:00,82.7,66.4,29.90,NE,46,0.0,0.0,58,0.00,,CLR,0.00,VWS V14.01,2013-07-20 01:31:00,
2013-07-19 20:36:00,82.7,67.9,29.90,NE,46,0.0,0.0,61,0.00,,CLR,0.00,VWS V14.01,2013-07-20 01:36:00,
2013-07-19 20:40:00,82.9,66.1,29.90,NE,46,0.0,0.0,57,0.00,,CLR,0.00,VWS V14.01,2013-07-20 01:40:00,
2013-07-19 20:41:00,82.9,68.1,29.90,NE,46,0.0,0.0,61,0.00,,CLR,0.00,VWS V14.01,2013-07-20 01:41:00,
2013-07-19 20:46:00,83.1,68.7,29.92,NE,46,0.0,0.0,62,0.00,,CLR,0.00,VWS V14.01,2013-07-20 01:46:00,
2013-07-19 20:50:00,82.7,67.9,29.90,NE,46,0.0,0.0,61,0.00,,CLR,0.00,VWS V14.01,2013-07-20 01:50:00,
2013-07-19 20:51:00,83.5,69.1,29.92,NE,54,0.0,0.0,62,0.00,,CLR,0.00,VWS V14.01,2013-07-20 01:51:00,
2013-07-19 20:56:00,83.5,69.1,29.92,NE,47,0.0,0.0,62,0.00,,CLR,0.00,VWS V14.01,2013-07-20 01:56:00,
2013-07-19 21:00:00,83.1,68.3,29.92,NE,46,0.0,0.0,61,0.00,,CLR,0.00,VWS V14.01,2013-07-20 02:00:00,
2013-07-19 21:01:00,83.5,68.7,29.92,NE,47,0.0,0.0,61,0.00,,CLR,0.00,VWS V14.01,2013-07-20 02:01:00,
2013-07-19 21:06:00,83.5,68.7,29.92,NW,325,0.0,0.0,61,0.00,,CLR,0.00,VWS V14.01,2013-07-20 02:06:00,
2013-07-19 21:10:00,83.5,69.1,29.92,NE,47,0.0,0.0,62,0.00,,CLR,0.00,VWS V14.01,2013-07-20 02:10:00,
2013-07-19 21:11:00,83.3,68.9,29.92,NW,325,0.0,0.0,62,0.00,,CLR,0.00,VWS V14.01,2013-07-20 02:11:00,
2013-07-19 21:16:00,83.1,69.2,29.92,NW,325,0.0,0.0,63,0.00,,CLR,0.00,VWS V14.01,2013-07-20 02:16:00,
2013-07-19 21:20:00,83.5,68.7,29.92,NW,325,0.0,0.0,61,0.00,,CLR,0.00,VWS V14.01,2013-07-20 02:20:00,
2013-07-19 21:21:00,82.9,69.0,29.92,NW,325,0.0,0.0,63,0.00,,CLR,0.00,VWS V14.01,2013-07-20 02:21:00,
2013-07-19 21:26:00,82.5,68.2,29.92,NW,325,0.0,0.0,62,0.00,,CLR,0.00,VWS V14.01,2013-07-20 02:26:00,
2013-07-19 21:30:00,83.1,69.2,29.92,NW,325,0.0,0.0,63,0.00,,CLR,0.00,VWS V14.01,2013-07-20 02:30:00,
2013-07-19 21:31:00,82.3,68.0,29.93,NW,325,0.0,0.0,62,0.00,,CLR,0.00,VWS V14.01,2013-07-20 02:31:00,
2013-07-19 21:36:00,82.1,68.3,29.93,NW,325,0.0,0.0,63,0.00,,CLR,0.00,VWS V14.01,2013-07-20 02:36:00,
2013-07-19 21:40:00,82.5,68.2,29.92,NW,325,0.0,0.0,62,0.00,,SCT065,0.00,VWS V14.01,2013-07-20 02:40:00,
2013-07-19 21:42:00,81.9,68.5,29.93,NW,325,0.0,0.0,64,0.00,,CLR,0.00,VWS V14.01,2013-07-20 02:42:00,
2013-07-19 21:47:00,81.7,68.3,29.94,NW,325,0.0,0.0,64,0.00,,CLR,0.00,VWS V14.01,2013-07-20 02:47:00,
2013-07-19 21:50:00,82.1,68.3,29.93,NW,325,0.0,0.0,63,0.00,,SCT065,0.00,VWS V14.01,2013-07-20 02:50:00,
2013-07-19 21:52:00,81.3,68.0,29.94,NW,325,0.0,0.0,64,0.00,,CLR,0.00,VWS V14.01,2013-07-20 02:52:00,
2013-07-19 21:57:00,81.1,68.7,29.94,NW,325,0.0,0.0,66,0.00,,CLR,0.00,VWS V14.01,2013-07-20 02:57:00,
2013-07-19 22:00:00,81.7,68.8,29.94,NW,325,0.0,0.0,65,0.00,,SCT065,0.00,VWS V14.01,2013-07-20 03:00:00,
2013-07-19 22:02:00,80.9,68.5,29.95,NW,325,0.0,0.0,66,0.00,,SCT065,0.00,VWS V14.01,2013-07-20 03:02:00,
2013-07-19 22:07:00,80.7,68.7,29.95,NW,325,0.0,0.0,67,0.00,,SCT065,0.00,VWS V14.01,2013-07-20 03:07:00,
2013-07-19 22:10:00,81.3,68.9,29.94,NW,325,0.0,0.0,66,0.00,,SCT065,0.00,VWS V14.01,2013-07-20 03:10:00,
2013-07-19 22:20:00,80.7,68.7,29.95,NW,325,0.0,0.0,67,0.00,,SCT065,0.00,VWS V14.01,2013-07-20 03:20:00,
2013-07-19 22:30:00,80.6,69.5,29.97,North,0,0.0,0.0,69,0.00,,SCT065,0.00,VWS V14.01,2013-07-20 03:30:00,
2013-07-19 22:40:00,80.2,69.1,29.97,North,0,0.0,0.0,69,0.00,,SCT065,0.00,VWS V14.01,2013-07-20 03:40:00,
2013-07-19 22:50:00,79.9,69.2,29.97,North,0,0.0,0.0,70,0.00,,SCT065,0.00,VWS V14.01,2013-07-20 03:50:00,
2013-07-19 23:00:00,79.7,69.5,29.98,North,0,0.0,0.0,71,0.00,,SCT065,0.00,VWS V14.01,2013-07-20 04:00:00,
2013-07-19 23:10:00,79.6,69.8,29.98,North,0,0.0,0.0,72,0.00,,SCT065,0.00,VWS V14.01,2013-07-20 04:10:00,
2013-07-19 23:20:00,79.4,69.6,29.99,North,0,0.0,0.0,72,0.00,,SCT065,0.00,VWS V14.01,2013-07-20 04:20:00,
2013-07-19 23:30:00,79.4,69.6,29.99,North,0,0.0,0.0,72,0.00,,SCT065,0.00,VWS V14.01,2013-07-20 04:30:00,
2013-07-19 23:40:00,79.2,69.4,29.99,North,0,0.0,0.0,72,0.00,,SCT065,0.00,VWS V14.01,2013-07-20 04:40:00,
2013-07-19 23:50:00,79.0,70.0,30.00,North,0,0.0,0.0,74,0.00,,SCT065,0.00,VWS V14.01,2013-07-20 04:50:00,